STARLINK-11243 [DTC]

Last updated on Tue Oct 01 2024 00:02:04 GMT+0000 (Coordinated Universal Time)

1 60927U 24155D 24274.41205176 .00000823 00000+0 90353-5 0 9993 2 60927 53.1474 51.2772 0002583 94.3447 265.7869 15.76739605 5897
UTC large
Height (km)
Speed (km/s)
/
Latitude / Longitude
Inclination (degrees)
Orbital Period (minutes)
Azimuth
Elevation
Range (km)
Doppler Factor

Next 0 passes for location: London (51.5072 / 0.1276)

Sorry there are no passes over London.